When you browse on this site, cookies collect data to enhance your experience and personalize the content and advertising you see.
Visit our Privacy Policy to learn more. By continuing to use the site, you agree to this use of cookies and data.
  • Em Portugal
  • Lista de países
  • Para 7 dias
  • Temperatura da água
  • Mapas de satélite
  • Mapa do tempo
  • Widgets de tempo
  • user-avatar
    Iniciar Sessão

    Previsão horária em Arakul

    Hoje, 24 Junho, Segunda-feira

    Tempo Temperatura Precipitação Vento Pressão Humidade
    00:00 +12°C° 0 mm 2 m/s 585 mmHg 81%
    01:00 +12°C° 0 mm 2 m/s 585 mmHg 79%
    02:00 +12°C° 0 mm 2 m/s 585 mmHg 77%
    03:00 +12°C° 0 mm 2 m/s 586 mmHg 74%
    04:00 +13°C° 0 mm 2 m/s 586 mmHg 73%
    05:00 +15°C° 0 mm 1 m/s 587 mmHg 71%
    06:00 +16°C° 0 mm 1 m/s 588 mmHg 69%
    07:00 +19°C° 0 mm 1 m/s 588 mmHg 65%
    08:00 +19°C° 0 mm 2 m/s 589 mmHg 60%
    09:00 +21°C° 0 mm 2 m/s 590 mmHg 56%
    10:00 +21°C° 0.9 mm 2 m/s 590 mmHg 57%
    11:00 +21°C° 0.9 mm 2 m/s 590 mmHg 59%
    12:00 +21°C° 0.9 mm 2 m/s 590 mmHg 61%
    13:00 +21°C° 1.1 mm 2 m/s 589 mmHg 61%
    14:00 +21°C° 1.1 mm 2 m/s 589 mmHg 61%
    15:00 +20°C° 0 mm 2 m/s 589 mmHg 64%
    16:00 +20°C° 0.6 mm 2 m/s 589 mmHg 66%
    17:00 +20°C° 0.6 mm 1 m/s 588 mmHg 68%
    18:00 +20°C° 0.6 mm 1 m/s 588 mmHg 70%
    19:00 +18°C° 0.1 mm 1 m/s 587 mmHg 73%
    20:00 +15°C° 0.1 mm 1 m/s 587 mmHg 76%
    21:00 +13°C° 0.1 mm 1 m/s 586 mmHg 79%
    22:00 +13°C° 0 mm 1 m/s 586 mmHg 78%
    23:00 +12°C° 0 mm 1 m/s 586 mmHg 78%

    Amanhã, 25 Junho, Terça-feira

    Tempo Temperatura Precipitação Vento Pressão Humidade
    00:00 +12°C° 0 mm 1 m/s 586 mmHg 77%
    01:00 +12°C° 0 mm 1 m/s 586 mmHg 76%
    02:00 +12°C° 0 mm 1 m/s 586 mmHg 75%
    03:00 +12°C° 0 mm 2 m/s 586 mmHg 74%
    04:00 +13°C° 0 mm 1 m/s 586 mmHg 71%
    05:00 +15°C° 0 mm 1 m/s 587 mmHg 68%
    06:00 +16°C° 0 mm 1 m/s 588 mmHg 66%
    07:00 +19°C° 0 mm 1 m/s 589 mmHg 61%
    08:00 +20°C° 0 mm 1 m/s 590 mmHg 56%
    09:00 +20°C° 0 mm 2 m/s 590 mmHg 51%
    10:00 +21°C° 0.5 mm 2 m/s 590 mmHg 52%
    11:00 +21°C° 0.5 mm 2 m/s 590 mmHg 53%
    12:00 +21°C° 0.5 mm 2 m/s 590 mmHg 54%
    13:00 +21°C° 0.8 mm 2 m/s 590 mmHg 54%
    14:00 +21°C° 0.8 mm 2 m/s 590 mmHg 54%
    15:00 +21°C° 0.8 mm 2 m/s 590 mmHg 55%
    16:00 +20°C° 0.4 mm 2 m/s 590 mmHg 57%
    17:00 +20°C° 0.4 mm 2 m/s 590 mmHg 60%
    18:00 +19°C° 0.4 mm 2 m/s 589 mmHg 62%
    19:00 +18°C° 0.1 mm 1 m/s 588 mmHg 64%
    20:00 +15°C° 0.1 mm 1 m/s 588 mmHg 66%
    21:00 +13°C° 0.1 mm 1 m/s 587 mmHg 68%
    22:00 +12°C° 0 mm 1 m/s 586 mmHg 68%
    23:00 +12°C° 0 mm 1 m/s 586 mmHg 68%

    Depois de amanhã, 26 Junho, Quarta-feira

    Tempo Temperatura Precipitação Vento Pressão Humidade
    00:00 +11°C° 0 mm 1 m/s 586 mmHg 68%
    01:00 +11°C° 0 mm 1 m/s 586 mmHg 68%
    02:00 +11°C° 0 mm 1 m/s 586 mmHg 67%
    03:00 +11°C° 0 mm 1 m/s 586 mmHg 67%
    04:00 +13°C° 0 mm 1 m/s 587 mmHg 65%
    05:00 +14°C° 0 mm 1 m/s 588 mmHg 63%
    06:00 +16°C° 0 mm 1 m/s 589 mmHg 62%
    07:00 +18°C° 0 mm 1 m/s 589 mmHg 58%
    08:00 +19°C° 0 mm 1 m/s 590 mmHg 55%
    09:00 +20°C° 0 mm 2 m/s 591 mmHg 51%
    10:00 +20°C° 0.5 mm 2 m/s 591 mmHg 54%
    11:00 +20°C° 0.5 mm 2 m/s 591 mmHg 57%
    12:00 +20°C° 0.5 mm 3 m/s 591 mmHg 60%
    13:00 +20°C° 1 mm 2 m/s 590 mmHg 61%
    14:00 +20°C° 1 mm 2 m/s 590 mmHg 61%
    15:00 +20°C° 1 mm 2 m/s 590 mmHg 62%
    16:00 +19°C° 0.6 mm 2 m/s 589 mmHg 65%
    17:00 +18°C° 0.6 mm 2 m/s 589 mmHg 67%
    18:00 +19°C° 0.6 mm 1 m/s 589 mmHg 70%
    19:00 +16°C° 0.2 mm 1 m/s 588 mmHg 75%
    20:00 +14°C° 0.2 mm 1 m/s 587 mmHg 79%
    21:00 +11°C° 0.2 mm 0 m/s 586 mmHg 84%
    22:00 +10°C° 0 mm 0 m/s 586 mmHg 84%
    23:00 +10°C° 0 mm 0 m/s 586 mmHg 85%

    27 Junho, Quinta-feira

    Tempo Temperatura Precipitação Vento Pressão Humidade
    00:00 +10°C° 0 mm 0 m/s 585 mmHg 85%
    01:00 +10°C° 0 mm 1 m/s 585 mmHg 85%
    02:00 +10°C° 0 mm 1 m/s 585 mmHg 84%
    03:00 +10°C° 0 mm 1 m/s 585 mmHg 84%
    04:00 +10°C° 0.1 mm 0 m/s 586 mmHg 81%
    05:00 +12°C° 0.1 mm 0 m/s 586 mmHg 77%
    06:00 +13°C° 0.1 mm 0 m/s 587 mmHg 74%
    07:00 +15°C° 0.7 mm 1 m/s 587 mmHg 74%
    08:00 +16°C° 0.7 mm 1 m/s 588 mmHg 74%
    09:00 +17°C° 0.7 mm 2 m/s 588 mmHg 74%
    10:00 +17°C° 1.2 mm 2 m/s 588 mmHg 75%
    11:00 +17°C° 1.2 mm 2 m/s 588 mmHg 75%
    12:00 +17°C° 1.2 mm 2 m/s 588 mmHg 76%
    13:00 +17°C° 0.9 mm 2 m/s 587 mmHg 77%
    14:00 +17°C° 0.9 mm 2 m/s 587 mmHg 78%
    15:00 +17°C° 0.9 mm 2 m/s 586 mmHg 79%
    16:00 +16°C° 0.2 mm 2 m/s 586 mmHg 81%
    17:00 +16°C° 0.2 mm 2 m/s 586 mmHg 82%
    18:00 +16°C° 0.2 mm 2 m/s 586 mmHg 84%
    19:00 +14°C° 0.2 mm 1 m/s 585 mmHg 87%
    20:00 +13°C° 0.2 mm 1 m/s 584 mmHg 90%
    21:00 +12°C° 0.2 mm 1 m/s 584 mmHg 92%
    22:00 +11°C° 0 mm 1 m/s 583 mmHg 91%
    23:00 +11°C° 0 mm 1 m/s 583 mmHg 90%

    28 Junho, Sexta-feira

    Tempo Temperatura Precipitação Vento Pressão Humidade
    00:00 +10°C° 0 mm 1 m/s 582 mmHg 89%
    01:00 +10°C° 0 mm 1 m/s 582 mmHg 87%
    02:00 +10°C° 0 mm 1 m/s 582 mmHg 86%
    03:00 +10°C° 0 mm 1 m/s 581 mmHg 85%
    04:00 +11°C° 0 mm 1 m/s 582 mmHg 84%
    05:00 +12°C° 0 mm 1 m/s 582 mmHg 82%
    06:00 +13°C° 0 mm 1 m/s 583 mmHg 81%
    07:00 +15°C° 0 mm 2 m/s 583 mmHg 78%
    08:00 +16°C° 0 mm 2 m/s 584 mmHg 74%
    09:00 +17°C° 0 mm 2 m/s 584 mmHg 71%
    10:00 +18°C° 0.8 mm 2 m/s 584 mmHg 69%
    11:00 +18°C° 0.8 mm 2 m/s 584 mmHg 67%
    12:00 +19°C° 0.8 mm 2 m/s 584 mmHg 65%
    13:00 +19°C° 1 mm 2 m/s 583 mmHg 66%
    14:00 +19°C° 1 mm 2 m/s 583 mmHg 66%
    15:00 +19°C° 1 mm 2 m/s 583 mmHg 66%
    16:00 +18°C° 0.8 mm 2 m/s 582 mmHg 70%
    17:00 +18°C° 0.8 mm 2 m/s 582 mmHg 73%
    18:00 +18°C° 0.8 mm 1 m/s 582 mmHg 77%
    19:00 +16°C° 0.1 mm 1 m/s 581 mmHg 78%
    20:00 +14°C° 0.1 mm 1 m/s 581 mmHg 79%
    21:00 +13°C° 0.1 mm 1 m/s 581 mmHg 80%
    22:00 +13°C° 0 mm 1 m/s 580 mmHg 82%
    23:00 +13°C° 0 mm 1 m/s 580 mmHg 84%

    29 Junho, Sábado

    Tempo Temperatura Precipitação Vento Pressão Humidade
    00:00 +12°C° 0 mm 1 m/s 580 mmHg 86%
    01:00 +12°C° 0.1 mm 1 m/s 580 mmHg 86%
    02:00 +13°C° 0.1 mm 1 m/s 580 mmHg 86%
    03:00 +12°C° 0.1 mm 0 m/s 580 mmHg 86%
    04:00 +12°C° 0 mm 0 m/s 580 mmHg 86%
    05:00 +12°C° 0 mm 0 m/s 580 mmHg 86%
    06:00 +12°C° 0 mm 0 m/s 581 mmHg 85%
    07:00 +14°C° 0.2 mm 1 m/s 581 mmHg 82%
    08:00 +15°C° 0.2 mm 1 m/s 581 mmHg 78%
    09:00 +17°C° 0.2 mm 2 m/s 582 mmHg 75%
    10:00 +17°C° 0.8 mm 2 m/s 582 mmHg 74%
    11:00 +17°C° 0.8 mm 2 m/s 582 mmHg 74%
    12:00 +18°C° 0.8 mm 3 m/s 582 mmHg 74%
    13:00 +18°C° 0.7 mm 3 m/s 582 mmHg 73%
    14:00 +18°C° 0.7 mm 2 m/s 582 mmHg 73%
    15:00 +18°C° 0.7 mm 2 m/s 581 mmHg 72%
    16:00 +17°C° 0.4 mm 2 m/s 581 mmHg 75%
    17:00 +17°C° 0.4 mm 2 m/s 581 mmHg 77%
    18:00 +16°C° 0.4 mm 2 m/s 581 mmHg 80%
    19:00 +15°C° 0.3 mm 2 m/s 581 mmHg 84%
    20:00 +14°C° 0.3 mm 1 m/s 581 mmHg 87%
    21:00 +13°C° 0.3 mm 1 m/s 581 mmHg 91%
    22:00 +13°C° 0.6 mm 1 m/s 581 mmHg 92%
    23:00 +13°C° 0.6 mm 1 m/s 581 mmHg 94%
    Mostrar mais